Date String (YYYY-MM-DD hh:mm:ss) UTC,Instrument flags,Ambient pressure (hPa),Sample flow (lpm),Bypass flow (lpm),Sample temperature (°C),Ambient temperature (°C),ASC tube jacket temperature (°C),LED temperature (°C),Box temperature (°C),Sample RH (%),Span deviation,Mass concentration (μg/m³),Mass concentration (μg/m³),Mass concentration (μg/m³)
DateTimeUTC,F1_M11,P_M11,Q1_M11,Q2_M11,T1_M11,T2_M11,T3_M11,T4_M11,T5_M11,U1_M11,ZSPAN_M11,X0_M11,X2_M11,X1_M11
2022-05-04 07:00:00,,0822.3,5.00,0.00,25.7,25.0,00.0,34.6,27.6,25.3,-000.8,0009.33,0007.53,0007.27
2022-05-04 07:01:00,,0822.3,5.01,0.00,25.8,25.0,00.0,34.6,27.6,25.3,-001.9,0009.29,0007.49,0007.23
2022-05-04 07:02:00,,0822.4,5.00,0.00,25.8,25.0,00.0,34.7,27.6,25.2,-000.8,0009.25,0007.43,0007.17
2022-05-04 07:03:00,,0822.3,5.01,0.00,25.8,25.0,00.0,34.7,27.6,25.2,0000.0,0009.18,0007.35,0007.09
2022-05-04 07:04:00,,0822.3,5.00,0.00,25.8,25.0,00.0,34.7,27.7,25.2,0000.0,0009.06,0007.26,0007.03
2022-05-04 07:05:00,,0822.3,5.02,0.00,25.8,25.0,00.0,34.7,27.7,25.3,0000.0,0008.99,0007.20,0006.96
2022-05-04 07:06:00,,0822.3,5.00,0.00,25.8,25.0,00.0,34.7,27.6,25.3,0000.0,0008.90,0007.14,0006.92
2022-05-04 07:07:00,,0822.3,5.01,0.00,25.8,25.0,00.0,34.7,27.6,25.3,-001.5,0008.83,0007.10,0006.88
2022-05-04 07:08:00,,0822.3,5.01,0.00,25.8,25.0,00.0,34.7,27.6,25.3,-002.4,0008.78,0007.05,0006.85
2022-05-04 07:09:00,,0822.3,5.00,0.00,25.8,25.0,00.0,34.7,27.7,25.3,-002.8,0008.77,0007.02,0006.80
2022-05-04 07:10:00,,0822.3,5.00,0.00,25.8,25.0,00.0,34.7,27.6,25.3,-003.0,0008.72,0006.99,0006.78
2022-05-04 07:11:00,,0822.3,5.01,0.00,25.8,25.0,00.0,34.7,27.7,25.3,-002.9,0008.65,0006.98,0006.76
2022-05-04 07:12:00,,0822.3,4.99,0.00,25.8,25.0,00.0,34.7,27.7,25.2,-002.8,0008.68,0007.01,0006.79
2022-05-04 07:13:00,,0822.3,5.00,0.00,25.8,25.0,00.0,34.7,27.6,25.2,-001.4,0008.72,0007.06,0006.84
2022-05-04 07:14:00,,0822.3,5.00,0.00,25.8,25.0,00.0,34.7,27.6,25.2,-002.4,0008.77,0007.13,0006.91
2022-05-04 07:15:00,,0822.3,5.00,0.00,25.8,25.0,00.0,34.7,27.7,25.2,-002.3,0008.90,0007.21,0006.97
2022-05-04 07:16:00,,0822.3,5.01,0.00,25.8,25.0,00.0,34.7,27.7,25.2,-002.8,0009.00,0007.26,0006.99
2022-05-04 07:17:00,,0822.3,4.98,0.00,25.8,25.0,00.0,34.7,27.7,25.1,-002.5,0009.03,0007.27,0007.00
2022-05-04 07:18:00,,0822.3,5.01,0.00,25.8,25.0,00.0,34.7,27.7,25.1,-001.1,0009.00,0007.26,0007.00
2022-05-04 07:19:00,,0822.3,4.99,0.00,25.8,25.0,00.0,34.7,27.7,25.1,0000.0,0008.97,0007.24,0006.98
2022-05-04 07:20:00,,0822.3,5.00,0.00,25.8,25.0,00.0,34.7,27.7,25.1,0000.0,0008.91,0007.19,0006.94
2022-05-04 07:21:00,,0822.3,5.01,0.00,25.8,25.0,00.0,34.7,27.7,25.1,-001.7,0008.85,0007.13,0006.89
2022-05-04 07:22:00,,0822.3,4.99,0.00,25.8,25.0,00.0,34.7,27.7,25.1,-002.1,0008.75,0007.05,0006.83
2022-05-04 07:23:00,,0822.3,5.00,0.00,25.8,25.0,00.0,34.7,27.7,25.1,-002.3,0008.63,0006.93,0006.71
2022-05-04 07:24:00,,0822.3,5.01,0.00,25.8,25.0,00.0,34.7,27.7,25.1,-002.4,0008.51,0006.77,0006.56
2022-05-04 07:25:00,,0822.3,4.98,0.00,25.8,25.0,00.0,34.7,27.7,25.7,-002.5,0008.31,0006.56,0006.35
2022-05-04 07:26:00,,0822.3,5.01,0.00,25.8,25.0,00.0,34.7,27.7,25.6,-002.2,0008.13,0006.38,0006.16
2022-05-04 07:27:00,,0822.3,5.01,0.00,25.8,25.0,00.0,34.7,27.7,25.0,-002.0,0007.93,0006.20,0006.00
2022-05-04 07:28:00,,0822.3,5.00,0.00,25.8,25.0,00.0,34.7,27.7,24.9,-000.4,0007.75,0006.02,0005.83
2022-05-04 07:29:00,,0822.3,5.00,0.00,25.8,25.0,00.0,34.7,27.7,24.8,0000.0,0007.55,0005.83,0005.66
2022-05-04 07:30:00,,0822.3,4.99,0.00,25.8,25.0,00.0,34.8,27.7,24.8,0000.0,0007.43,0005.70,0005.54
2022-05-04 07:31:00,,0822.3,5.00,0.00,25.8,25.0,00.0,34.8,27.7,24.8,0000.0,0007.36,0005.61,0005.45
2022-05-04 07:32:00,,0822.2,5.00,0.00,25.9,25.0,00.0,34.8,27.7,24.8,0000.0,0007.21,0005.51,0005.35
2022-05-04 07:33:00,,0822.2,4.99,0.00,25.9,25.0,00.0,34.8,27.7,24.7,0000.0,0007.26,0005.44,0005.27
2022-05-04 07:34:00,,0822.2,5.01,0.00,25.9,25.0,00.0,34.8,27.7,24.7,0000.0,0007.24,0005.42,0005.24
2022-05-04 07:35:00,,0822.1,5.00,0.00,25.9,25.0,00.0,34.8,27.7,24.8,0000.0,0007.39,0005.54,0005.35
2022-05-04 07:36:00,,0822.1,5.00,0.00,25.9,25.0,00.0,34.8,27.7,24.8,0000.0,0007.71,0005.85,0005.63
2022-05-04 07:37:00,,0822.1,5.01,0.00,25.9,25.0,00.0,34.8,27.7,24.8,0000.0,0007.97,0006.15,0005.95
2022-05-04 07:38:00,,0822.1,4.99,0.00,25.9,25.0,00.0,34.8,27.7,24.8,0000.0,0008.31,0006.50,0006.27
2022-05-04 07:39:00,,0822.1,5.01,0.00,25.9,25.0,00.0,34.8,27.7,24.9,0000.0,0008.72,0006.87,0006.62
2022-05-04 07:40:00,,0822.1,5.01,0.00,25.9,25.0,00.0,34.8,27.7,24.9,-000.1,0009.20,0007.26,0006.97
2022-05-04 07:41:00,,0822.1,4.99,0.00,25.9,25.0,00.0,34.8,27.7,24.8,-002.0,0009.48,0007.52,0007.20
2022-05-04 07:42:00,,0822.1,5.00,0.00,25.9,25.0,00.0,34.8,27.7,24.7,-003.1,0009.58,0007.64,0007.32
2022-05-04 07:43:00,,0822.1,5.01,0.00,25.9,25.0,00.0,34.8,27.7,24.4,-002.9,0009.59,0007.63,0007.32
2022-05-04 07:44:00,,0822.0,4.99,0.00,25.9,25.0,00.0,34.8,27.7,24.2,-002.8,0009.34,0007.47,0007.16
2022-05-04 07:45:00,,0822.0,5.02,0.00,25.9,25.1,00.0,34.8,27.7,24.1,-002.6,0009.15,0007.28,0006.98
2022-05-04 07:46:00,,0822.0,4.99,0.00,25.9,25.0,00.0,34.8,27.7,24.0,-002.1,0008.83,0006.97,0006.69
2022-05-04 07:47:00,,0822.0,5.02,0.00,25.9,25.0,00.0,34.8,27.7,23.9,0000.0,0008.41,0006.52,0006.26
2022-05-04 07:48:00,,0822.0,4.99,0.00,25.9,25.0,00.0,34.8,27.7,23.9,0000.0,0007.95,0006.04,0005.81
2022-05-04 07:49:00,,0822.0,5.01,0.00,25.9,25.0,00.0,34.8,27.7,23.8,0000.0,0007.47,0005.55,0005.34
2022-05-04 07:50:00,,0822.1,5.00,0.00,25.9,25.0,00.0,34.8,27.7,23.7,0000.0,0006.59,0005.02,0004.85
2022-05-04 07:51:00,,0822.1,4.99,0.00,25.9,25.0,00.0,34.8,27.7,23.6,0000.0,0005.43,0004.45,0004.34
2022-05-04 07:52:00,,0822.1,5.01,0.00,25.9,25.0,00.0,34.8,27.7,23.5,0000.0,0004.78,0004.03,0003.91
2022-05-04 07:53:00,,0822.1,5.00,0.00,25.9,25.0,00.0,34.8,27.7,23.5,0000.0,0004.23,0003.71,0003.59
2022-05-04 07:54:00,,0822.1,4.99,0.00,25.9,25.0,00.0,34.8,27.7,23.5,0000.0,0003.93,0003.52,0003.39
2022-05-04 07:55:00,,0822.1,5.02,0.00,25.9,25.0,00.0,34.8,27.7,23.4,0000.0,0003.84,0003.45,0003.32
2022-05-04 07:56:00,,0822.1,4.99,0.00,25.9,25.0,00.0,34.8,27.7,23.3,0000.0,0003.76,0003.38,0003.25
2022-05-04 07:57:00,,0822.1,5.00,0.00,25.8,25.0,00.0,34.8,27.7,23.3,0000.0,0003.69,0003.32,0003.19
2022-05-04 07:58:00,,0822.1,5.01,0.00,25.8,25.0,00.0,34.8,27.7,23.3,0000.0,0003.58,0003.25,0003.13
2022-05-04 07:59:00,,0822.1,4.98,0.00,25.8,25.0,00.0,34.8,27.7,23.4,0000.0,0003.43,0003.16,0002.98
